Tiempo cada hora Dabwali

Hoy, 1 Diciembre, Martes

Tiempo Temperatura Precipitaciones Viento Presión Humedad
00:00 +16°C° 0 mm 0 mps 744 mmHg 23%
01:00 +16°C° 0 mm 0 mps 744 mmHg 23%
02:00 +16°C° 0 mm 0 mps 743 mmHg 23%
03:00 +16°C° 0 mm 0 mps 743 mmHg 23%
04:00 +16°C° 0 mm 1 mps 743 mmHg 24%
05:00 +16°C° 0 mm 1 mps 744 mmHg 24%
06:00 +18°C° 0 mm 1 mps 744 mmHg 23%
07:00 +17°C° 0 mm 0 mps 745 mmHg 21%
08:00 +18°C° 0 mm 0 mps 745 mmHg 20%
09:00 +23°C° 0 mm 1 mps 745 mmHg 18%
10:00 +25°C° 0 mm 1 mps 746 mmHg 15%
11:00 +28°C° 0 mm 2 mps 746 mmHg 12%
12:00 +29°C° 0 mm 2 mps 745 mmHg 12%
13:00 +30°C° 0 mm 2 mps 745 mmHg 11%
14:00 +31°C° 0 mm 2 mps 744 mmHg 11%
15:00 +29°C° 0 mm 2 mps 744 mmHg 13%
16:00 +27°C° 0 mm 2 mps 743 mmHg 14%
17:00 +25°C° 0 mm 1 mps 743 mmHg 16%
18:00 +24°C° 0 mm 1 mps 743 mmHg 17%
19:00 +23°C° 0 mm 1 mps 744 mmHg 18%
20:00 +19°C° 0 mm 0 mps 744 mmHg 20%
21:00 +19°C° 0 mm 0 mps 744 mmHg 20%
22:00 +21°C° 0 mm 1 mps 744 mmHg 21%
23:00 +20°C° 0 mm 1 mps 744 mmHg 21%

Mañana, 2 Diciembre, Miércoles

Tiempo Temperatura Precipitaciones Viento Presión Humedad
00:00 +20°C° 0 mm 1 mps 743 mmHg 22%
01:00 +19°C° 0 mm 1 mps 743 mmHg 23%
02:00 +19°C° 0 mm 1 mps 743 mmHg 23%
03:00 +18°C° 0 mm 1 mps 743 mmHg 24%
04:00 +18°C° 0 mm 1 mps 743 mmHg 24%
05:00 +16°C° 0 mm 1 mps 743 mmHg 25%
06:00 +18°C° 0 mm 1 mps 744 mmHg 24%
07:00 +19°C° 0 mm 1 mps 744 mmHg 22%
08:00 +20°C° 0 mm 1 mps 744 mmHg 21%
09:00 +23°C° 0 mm 1 mps 744 mmHg 18%
10:00 +26°C° 0 mm 1 mps 744 mmHg 15%
11:00 +29°C° 0 mm 2 mps 745 mmHg 12%
12:00 +30°C° 0 mm 2 mps 744 mmHg 12%
13:00 +31°C° 0 mm 3 mps 743 mmHg 11%
14:00 +33°C° 0 mm 3 mps 742 mmHg 11%
15:00 +30°C° 0 mm 3 mps 742 mmHg 12%
16:00 +28°C° 0 mm 2 mps 741 mmHg 14%
17:00 +26°C° 0 mm 2 mps 741 mmHg 15%
18:00 +25°C° 0 mm 2 mps 741 mmHg 16%
19:00 +23°C° 0 mm 2 mps 741 mmHg 17%
20:00 +21°C° 0 mm 2 mps 742 mmHg 19%
21:00 +21°C° 0 mm 1 mps 742 mmHg 19%
22:00 +21°C° 0 mm 1 mps 741 mmHg 20%
23:00 +20°C° 0 mm 1 mps 741 mmHg 21%

Pasado mañana, 3 Diciembre, Jueves

Tiempo Temperatura Precipitaciones Viento Presión Humedad
00:00 +19°C° 0 mm 1 mps 741 mmHg 22%
01:00 +19°C° 0 mm 1 mps 741 mmHg 23%
02:00 +18°C° 0 mm 1 mps 741 mmHg 24%
03:00 +18°C° 0 mm 1 mps 741 mmHg 25%
04:00 +16°C° 0 mm 1 mps 741 mmHg 27%
05:00 +16°C° 0 mm 1 mps 741 mmHg 28%
06:00 +16°C° 0 mm 0 mps 741 mmHg 26%
07:00 +17°C° 0 mm 0 mps 742 mmHg 25%
08:00 +19°C° 0 mm 0 mps 743 mmHg 24%
09:00 +21°C° 0 mm 0 mps 743 mmHg 20%
10:00 +24°C° 0 mm 0 mps 743 mmHg 17%
11:00 +27°C° 0 mm 0 mps 743 mmHg 13%
12:00 +30°C° 0 mm 1 mps 743 mmHg 12%
13:00 +31°C° 0 mm 1 mps 742 mmHg 11%
14:00 +32°C° 0 mm 1 mps 741 mmHg 10%
15:00 +29°C° 0 mm 1 mps 741 mmHg 12%
16:00 +27°C° 0 mm 1 mps 741 mmHg 14%
17:00 +23°C° 0 mm 0 mps 740 mmHg 15%
18:00 +24°C° 0 mm 1 mps 741 mmHg 17%
19:00 +23°C° 0 mm 1 mps 741 mmHg 18%
20:00 +22°C° 0 mm 1 mps 741 mmHg 20%
21:00 +21°C° 0 mm 1 mps 741 mmHg 20%
22:00 +20°C° 0 mm 1 mps 741 mmHg 21%
23:00 +20°C° 0 mm 1 mps 741 mmHg 22%

4 Diciembre, Viernes

Tiempo Temperatura Precipitaciones Viento Presión Humedad
00:00 +20°C° 0 mm 1 mps 741 mmHg 23%
01:00 +19°C° 0 mm 1 mps 741 mmHg 24%
02:00 +18°C° 0 mm 2 mps 740 mmHg 25%
03:00 +17°C° 0 mm 2 mps 740 mmHg 26%
04:00 +17°C° 0 mm 2 mps 740 mmHg 28%
05:00 +16°C° 0 mm 2 mps 740 mmHg 30%
06:00 +17°C° 0 mm 2 mps 740 mmHg 29%
07:00 +18°C° 0 mm 2 mps 741 mmHg 28%
08:00 +19°C° 0 mm 2 mps 741 mmHg 27%
09:00 +23°C° 0 mm 2 mps 741 mmHg 23%
10:00 +26°C° 0 mm 2 mps 742 mmHg 18%
11:00 +29°C° 0 mm 3 mps 742 mmHg 14%
12:00 +30°C° 0 mm 3 mps 741 mmHg 12%
13:00 +31°C° 0 mm 3 mps 740 mmHg 11%
14:00 +32°C° 0 mm 2 mps 740 mmHg 10%
15:00 +30°C° 0 mm 2 mps 739 mmHg 11%
16:00 +28°C° 0 mm 2 mps 739 mmHg 13%
17:00 +26°C° 0 mm 2 mps 739 mmHg 14%
18:00 +25°C° 0 mm 2 mps 739 mmHg 16%
19:00 +23°C° 0 mm 2 mps 740 mmHg 18%
20:00 +21°C° 0 mm 3 mps 740 mmHg 20%
21:00 +20°C° 0 mm 3 mps 740 mmHg 23%
22:00 +19°C° 0 mm 3 mps 740 mmHg 26%
23:00 +19°C° 0 mm 3 mps 740 mmHg 28%

5 Diciembre, Sábado

Tiempo Temperatura Precipitaciones Viento Presión Humedad
00:00 +18°C° 0 mm 3 mps 740 mmHg 30%
01:00 +18°C° 0 mm 3 mps 740 mmHg 31%
02:00 +17°C° 0 mm 3 mps 740 mmHg 32%
03:00 +17°C° 0 mm 3 mps 740 mmHg 33%
04:00 +16°C° 0 mm 3 mps 740 mmHg 34%
05:00 +16°C° 0 mm 2 mps 739 mmHg 35%
06:00 +16°C° 0 mm 3 mps 740 mmHg 35%
07:00 +17°C° 0 mm 3 mps 741 mmHg 35%
08:00 +18°C° 0 mm 3 mps 741 mmHg 34%
09:00 +21°C° 0 mm 3 mps 741 mmHg 29%
10:00 +24°C° 0 mm 3 mps 742 mmHg 24%
11:00 +27°C° 0 mm 2 mps 742 mmHg 20%
12:00 +28°C° 0 mm 2 mps 741 mmHg 18%
13:00 +29°C° 0 mm 2 mps 740 mmHg 16%
14:00 +31°C° 0 mm 2 mps 740 mmHg 15%
15:00 +29°C° 0 mm 1 mps 740 mmHg 17%
16:00 +27°C° 0 mm 1 mps 739 mmHg 19%
17:00 +25°C° 0 mm 1 mps 739 mmHg 21%
18:00 +24°C° 0 mm 1 mps 740 mmHg 24%
19:00 +21°C° 0 mm 2 mps 740 mmHg 27%
20:00 +20°C° 0 mm 2 mps 740 mmHg 30%
21:00 +20°C° 0 mm 2 mps 741 mmHg 32%
22:00 +19°C° 0 mm 2 mps 741 mmHg 34%
23:00 +19°C° 0 mm 2 mps 741 mmHg 36%

6 Diciembre, Domingo

Tiempo Temperatura Precipitaciones Viento Presión Humedad
00:00 +18°C° 0 mm 2 mps 741 mmHg 37%
01:00 +17°C° 0 mm 2 mps 741 mmHg 39%
02:00 +17°C° 0 mm 2 mps 741 mmHg 40%
03:00 +16°C° 0 mm 2 mps 741 mmHg 42%
04:00 +16°C° 0 mm 2 mps 741 mmHg 43%
05:00 +16°C° 0 mm 2 mps 741 mmHg 44%
06:00 +16°C° 0 mm 1 mps 742 mmHg 43%
07:00 +18°C° 0 mm 1 mps 743 mmHg 42%
08:00 +19°C° 0 mm 1 mps 743 mmHg 40%
09:00 +22°C° 0 mm 1 mps 743 mmHg 34%
10:00 +24°C° 0 mm 1 mps 744 mmHg 28%
11:00 +27°C° 0 mm 1 mps 744 mmHg 22%
12:00 +28°C° 0 mm 1 mps 743 mmHg 20%
13:00 +29°C° 0 mm 1 mps 743 mmHg 18%
14:00 +30°C° 0 mm 1 mps 742 mmHg 17%
15:00 +28°C° 0 mm 1 mps 742 mmHg 19%
16:00 +27°C° 0 mm 1 mps 742 mmHg 21%
17:00 +25°C° 0 mm 1 mps 742 mmHg 23%
18:00 +24°C° 0 mm 1 mps 742 mmHg 26%
19:00 +22°C° 0 mm 1 mps 742 mmHg 28%
20:00 +21°C° 0 mm 1 mps 743 mmHg 31%
21:00 +21°C° 0 mm 1 mps 743 mmHg 33%
22:00 +20°C° 0 mm 1 mps 743 mmHg 34%
23:00 +20°C° 0 mm 1 mps 743 mmHg 36%
Mostrar más

Necesitamos Su Consentimiento

Meteoprog y nuestros Proveedores de Servicios pueden almacenar y acceder a sus datos personales como cookies, identificadores de dispositivo u otras tecnologías similares de su dispositivo y procesar dichos datos para personalizar contenido y anuncios, además de ofrecer funciones de redes sociales y analizar el tráfico.

  • Almacenar y/o acceder a información en su dispositivo

    Se puede almacenar o acceder a cookies, identificadores de dispositivo u otra información de su dispositivo para los fines anteriormente indicados.

  • Anuncios y contenido personalizados, medición de anuncios y contenido, percepciones del público, y desarrollo de productos

    Los anuncios y el contenido pueden personalizarse en base a su perfil. Se pueden añadir más datos para personalizar mejor los anuncios y contenidos. Se puede medir el rendimiento de los anuncios y contenidos. Se puede obtener la percepción sobre el público que ha visto los anuncios y contenidos. Dichos datos pueden usarse para desarrollar o mejorar la experiencia del usuario, sistemas y software.

Al hacer clic en ‘Estoy De Acuerdo’ usted permitirá el uso de las cookies, identificadores de dispositivo, balizas web u otras tecnologías similares indicadas. Su configuración puede cambiarse desde el navegador de su dispositivo.

Para ciertos fines, los intereses legítimos pueden ser considerados por encima del consentimiento. Puede leer más sobre ello en nuestra Política de Privacidad y Cookies.